TIME,�g��[���C[MJ/h],����[MJ/h],�Ɩ�[MJ/h],�~�[[MJ/h],�①��[MJ/h],��y���[MJ/h],�Ǝ��q��[MJ/h],���̑�[MJ/h],�����G�l���M�[[MJ/h]
2004/1/1 0:00,10.5854,0,0,0.0454,0.2824,0.3249,0.086,1.6806,0
2004/1/1 0:15,11.4708,0,0,0.2035,0.1459,0.365,0.1405,1.7417,0
2004/1/1 0:30,11.4846,0,0,0.38,0.1318,0.4175,0.0887,1.7322,0
2004/1/1 0:45,11.537,0,0,0.1439,0.3093,0.4162,0.0878,1.7474,0
2004/1/1 1:00,11.5468,0,0,1.6635,0.1616,0.4182,0.1377,1.7523,0
2004/1/1 1:15,11.4193,0,0,0.1434,0.1509,0.4038,0.0717,1.7847,0
2004/1/1 1:30,11.3661,0,0,0.1493,0.3038,0.4185,0.1132,1.4062,0
2004/1/1 1:45,11.406,0,0,0.1493,0.1561,0.0838,0.0778,0.5196,0
2004/1/1 2:00,11.466,0,0,0.1505,0.1225,0.0429,0.1253,0.3594,0
2004/1/1 2:15,11.4984,0,0,0.1498,0.3059,0.0425,0.0779,0.3745,0
2004/1/1 2:30,11.4572,0,0,0.1495,0.3141,0.0429,0.1236,0.3652,0
2004/1/1 2:45,8.446,0,0,0.148,0.2949,0.0429,0.0855,0.4268,0
2004/1/1 3:00,1.5012,0,0,0.1512,0.5003,0.0432,0.1273,0.3633,0
2004/1/1 3:15,8.7031,0,0,0.1496,0.5695,0.0432,0.085,0.3385,0
2004/1/1 3:30,11.6531,0,0,0.1513,0.4499,0.0432,0.1345,0.3817,0
2004/1/1 3:45,5.8591,0,0,0.1549,0.4694,0.0433,0.086,0.3649,0
2004/1/1 4:00,1.4952,0,0,0.1495,0.4156,0.0433,0.0825,0.3586,0
2004/1/1 4:15,7.6143,0,0,0.1479,0.0462,0.0429,0.1341,0.2969,0
2004/1/1 4:30,11.5923,0,0,0.1515,0.2134,0.0431,0.0821,0.3591,0
2004/1/1 4:45,3.6246,0,0,0.1502,0.2896,0.0433,0.1335,0.3711,0
2004/1/1 5:00,1.5015,0,0,0.1547,0.0311,0.0432,0.0828,0.3643,0
2004/1/1 5:15,6.6096,0,0,0.1483,0.2773,0.0432,0.1279,0.3588,0
2004/1/1 5:30,11.606,0,0,0.1547,0.1824,0.0432,0.0844,0.3524,0
2004/1/1 5:45,2.5165,0,0,0.1485,0.1593,0.0433,0.1282,0.3911,0
2004/1/1 6:00,1.5028,0,0,0.1549,0.3007,0.0435,0.0871,0.3656,0
2004/1/1 6:15,5.405,0,0,0.1477,0.066,0.0431,0.1326,0.3132,0
2004/1/1 6:30,10.6217,0,0,0.1516,0.2465,0.0432,0.0876,0.3511,0
2004/1/1 6:45,1.8563,0,0,0.1551,0.2033,0.0436,0.11,0.3858,0
2004/1/1 7:00,1.5065,0,0,0.1518,0.1616,0.0461,0.1104,0.364,0
2004/1/1 7:15,2.6513,0,0,0.1522,0.2994,0.0586,0.1071,0.3555,0
2004/1/1 7:30,10.5756,0,0,0.1521,0.0791,0.0432,0.1426,0.3604,0
2004/1/1 7:45,4.2945,0,0,0.1539,0.3136,0.0432,0.0886,0.3902,0
2004/1/1 8:00,1.3771,0,0,0.1493,0.1568,0.0426,0.1417,0.3617,0
2004/1/1 8:15,0,0,0,0.1534,0.2405,0.0432,0.0916,0.4039,0
2004/1/1 8:30,0,0,0,0.1459,0.222,0.0431,0.0888,1.0574,0
2004/1/1 8:45,0,0,0,4.1135,0.1722,0.0428,0.1395,1.0976,0
2004/1/1 9:00,0,0,0,1.0956,0.3037,0.0428,0.0907,1.0572,0
2004/1/1 9:15,0,0,0,0.1529,0.0782,0.0428,0.1361,1.0325,0
2004/1/1 9:30,0,0,0,3.7181,0.2818,0.0423,2.6325,1.1318,0
2004/1/1 9:45,0,0,0,1.5366,0.2015,0.0426,0.1405,1.0264,0
2004/1/1 10:00,0,0,0,0.1408,0.1112,0.0423,0.095,1.0768,0
2004/1/1 10:15,0,0,0,0.1453,0.3056,0.0428,0.1682,1.6633,0
2004/1/1 10:30,0,0,0,0.1411,0.0956,0.0433,0.14,1.3023,0
2004/1/1 10:45,0,0,0,0.1483,0.2091,0.0432,0.094,0.4081,0
2004/1/1 11:00,0,0,0,0.1437,0.2955,0.0435,0.1367,0.2529,0
2004/1/1 11:15,0,0,0,0.1459,0.0996,0.0433,0.0949,0.3354,0
2004/1/1 11:30,0,0,0,0.1473,0.1842,0.0432,0.1423,0.4445,0
2004/1/1 11:45,0,0,0,0.1447,0.3008,0.0433,0.0916,0.4483,0
2004/1/1 12:00,0,0,0,0.1472,0.0732,0.0454,0.1064,0.4363,0
2004/1/1 12:15,0,0,0,0.1441,0.2087,0.0498,0.1247,0.4514,0
2004/1/1 12:30,0,0,0,0.15,0.2408,0.0431,0.0901,0.4418,0
2004/1/1 12:45,0.0003,0,0,0.1439,0.0474,0.0431,0.1364,0.4601,0
2004/1/1 13:00,0,0,0,0.1434,0.3129,0.0432,0.09,0.4373,0
2004/1/1 13:15,0,0,0,0.1488,0.1129,0.0432,0.1289,0.4484,0
2004/1/1 13:30,0,0,0,0.1453,0.1865,0.0433,0.0897,0.4499,0
2004/1/1 13:45,0,0,0,0.1428,0.2582,0.0433,0.1356,0.444,0
2004/1/1 14:00,0,0,0,0.1521,0.0765,0.0433,0.0888,0.4585,0
2004/1/1 14:15,0,0,0,0.1424,0.3162,0.0433,0.1358,0.433,0
2004/1/1 14:30,0,0,0,0.1454,0.1261,0.0433,0.0883,0.4416,0
2004/1/1 14:45,0,0,0,0.1488,0.1843,0.0433,0.143,0.4533,0
2004/1/1 15:00,0,0,0,0.1424,0.265,0.0431,0.0874,0.4398,0
2004/1/1 15:15,0,0,0,0.1502,0.0312,0.0432,0.0874,0.4499,0
2004/1/1 15:30,0,0,0,0.1446,0.3108,0.0431,0.1421,0.4375,0
2004/1/1 15:45,0,0,0,0.1475,0.1398,0.0429,0.0868,0.4494,0
2004/1/1 16:00,0,0,0,0.1443,0.2064,0.0429,0.0865,0.4393,0
2004/1/1 16:15,0,0,0,0.145,0.2638,0.0428,0.1283,0.4339,0
2004/1/1 16:30,0,0,0,0.1489,0.0314,0.0428,0.0852,0.4379,0
2004/1/1 16:45,0,0,0,0.1489,0.3158,0.0426,0.1279,0.4507,0
2004/1/1 17:00,0,0,0,0.1443,0.1499,0.0423,0.086,0.4332,0
2004/1/1 17:15,0,0,0,0.1441,0.2555,0.0423,0.1349,0.4332,0
2004/1/1 17:30,0,0,0,0.1489,0.2868,0.0423,0.0857,0.448,0
2004/1/1 17:45,0,0,0,0.1463,0.1505,0.0428,0.0858,0.4545,0
2004/1/1 18:00,0,0,0,0.1469,0.1004,0.0431,0.1322,0.45,0
2004/1/1 18:15,0,0,0,0.1463,0.3079,0.0429,0.0861,0.4447,0
2004/1/1 18:30,0,0,0,0.1469,0.1375,0.0429,0.132,0.4429,0
2004/1/1 18:45,0,0,0,0.1477,0.2133,0.0429,0.086,0.4504,0
2004/1/1 19:00,0,0,0,0.1454,0.2454,0.0449,0.1348,0.444,0
2004/1/1 19:15,0,0,0,0.1479,0.0834,0.0583,0.0687,0.4319,0
2004/1/1 19:30,0,0,0,0.1477,0.3135,0.0429,0.0734,0.4552,0
2004/1/1 19:45,0,0,0,0.1454,0.1211,0.0429,0.1195,0.444,0
2004/1/1 20:00,0,0,0,0.1486,0.2205,0.0428,0.0923,0.4486,0
2004/1/1 20:15,0,0,0,0.1499,0.2534,0.0431,0.1349,0.4419,0
2004/1/1 20:30,0,0,0,0.1486,0.0897,0.0428,0.0855,0.451,0
2004/1/1 20:45,0,0,0,0.1466,0.312,0.0432,0.0864,0.4369,0
2004/1/1 21:00,0,0,0,0.148,0.1045,0.0432,0.1356,0.4552,0
2004/1/1 21:15,0,0,0,0.1479,0.2071,0.0433,0.0867,0.436,0
2004/1/1 21:30,0,0,0,0.1464,0.2281,0.0429,0.1349,0.4481,0
2004/1/1 21:45,0,0,0,0.1505,0.1184,0.0429,0.0864,0.4532,0
2004/1/1 22:00,0,0,0,0.148,0.305,0.0433,0.0876,0.8021,0
2004/1/1 22:15,5.4276,0,0,0.1473,0.0986,0.3588,0.1346,0.9485,0
2004/1/1 22:30,11.5512,0,0,0.1489,0.2536,0.4084,0.0854,1.2354,0
2004/1/1 22:45,11.3145,0,0,0.148,0.2022,0.4173,0.1364,1.2936,0
2004/1/1 23:00,11.2205,0,0,0.1492,0.1037,0.4067,0.072,1.4908,0
2004/1/1 23:15,11.2716,0,0,0.146,0.3018,0.4081,0.1254,1.9168,0
2004/1/1 23:30,11.2795,0,0,0.1463,0.109,0.4029,0.126,1.8399,0
2004/1/1 23:45,11.1695,0,0,0.4823,0.2462,0.4005,0.1024,1.7849,0
2004/1/2 0:00,11.2985,0,0,0.1467,0.2156,0.4023,0.132,1.7064,0
2004/1/2 0:15,11.3623,0,0,0.147,0.0847,0.3966,0.1421,1.6893,0
2004/1/2 0:30,11.3062,0,0,0.1443,0.3051,0.4051,0.0917,1.7153,0
2004/1/2 0:45,11.4173,0,0,0.1443,0.0907,0.4074,0.0955,1.3637,0
2004/1/2 1:00,11.5013,0,0,0.147,0.2493,0.4141,0.1424,1.2302,0
2004/1/2 1:15,11.4284,0,0,0.149,0.2121,0.3766,0.0737,1.273,0
2004/1/2 1:30,11.4155,0,0,0.1427,0.0873,0.3175,0.1211,1.0642,0
2004/1/2 1:45,11.4664,0,0,0.1485,0.3037,0.0426,0.0834,0.363,0
2004/1/2 2:00,11.5089,0,0,0.1447,0.1038,0.0429,0.124,0.3161,0
2004/1/2 2:15,11.514,0,0,0.1464,0.2462,0.0428,0.0808,0.3108,0
2004/1/2 2:30,11.5425,0,0,0.1483,0.2899,0.0429,0.1296,0.3146,0
2004/1/2 2:45,3.9119,0,0,0.1475,0.3087,0.0432,0.0816,0.3057,0
2004/1/2 3:00,2.8679,0,0,0.1452,0.3954,0.0436,0.1286,0.2683,0
2004/1/2 3:15,11.7131,0,0,0.1485,0.5721,0.0435,0.0821,0.3228,0
2004/1/2 3:30,11.1329,0,0,0.1452,0.4558,0.0426,0.1333,0.3763,0
2004/1/2 3:45,1.4645,0,0,0.1495,0.4679,0.0428,0.0811,0.3084,0
2004/1/2 4:00,1.4674,0,0,0.146,0.3354,0.0425,0.0816,0.3106,0
2004/1/2 4:15,11.0586,0,0,0.1498,0.1236,0.0423,0.1339,0.2856,0
2004/1/2 4:30,9.7973,0,0,0.143,0.304,0.0423,0.0815,0.3681,0
2004/1/2 4:45,1.4751,0,0,0.1477,0.1705,0.0429,0.1349,0.2962,0
2004/1/2 5:00,1.474,0,0,0.1492,0.2323,0.0426,0.0824,0.3028,0
2004/1/2 5:15,8.6545,0,0,0.1495,0.2488,0.0422,0.132,0.292,0
2004/1/2 5:30,10.3628,0,0,0.1488,0.1499,0.0423,0.0842,0.3023,0
2004/1/2 5:45,1.4658,0,0,0.1464,0.3,0.0426,0.1293,0.3224,0
2004/1/2 6:00,1.4642,0,0,0.1467,0.0923,0.0425,0.0857,0.2962,0
2004/1/2 6:15,4.4483,0,0,0.1513,0.3132,0.0435,0.0822,0.3207,0
2004/1/2 6:30,11.6385,0,0,0.1477,0.1408,0.0432,0.1348,0.3084,0
2004/1/2 6:45,2.2133,0,0,0.1502,0.2648,0.0435,0.0824,0.3401,0
2004/1/2 7:00,0.6947,0,0,0.1457,0.2085,0.0454,0.1342,0.3123,0
2004/1/2 7:15,1.477,0,0,0.148,0.1986,0.0583,0.1021,0.312,0
2004/1/2 7:30,8.6695,0,0,0.1483,0.251,0.0423,0.1443,0.2493,0
2004/1/2 7:45,8.1998,0,0,0.1535,0.1545,0.0428,0.0956,0.3606,0
2004/1/2 8:00,0,0,0,0.1482,0.3076,0.0431,0.1385,0.3488,0
2004/1/2 8:15,0,0,0,0.1436,0.0887,0.0433,0.0966,0.3472,0
2004/1/2 8:30,0,0,0,0.1525,0.3145,0.0441,0.1407,0.3387,0
2004/1/2 8:45,0,0,0,0.1475,0.1584,0.0433,0.1401,0.4215,0
2004/1/2 9:00,0,0,0,0.1486,0.2534,0.0433,0.9514,0.5134,0
2004/1/2 9:15,0,0,0,1.764,0.231,0.0642,0.8374,0.7972,0
2004/1/2 9:30,0,0,0,0.5278,0.1865,0.4103,0.6075,1.0731,0
2004/1/2 9:45,0,0,0,0.1489,0.286,0.4255,0.6287,1.1337,0
2004/1/2 10:00,0,0,0,0.144,0.1217,0.4355,0.0984,1.1052,0
2004/1/2 10:15,0,0,0,0.7343,0.3082,0.1896,0.145,1.1095,0
2004/1/2 10:30,0,0,0,4.0167,0.1287,0.0429,0.0979,1.3239,0
2004/1/2 10:45,0,0,0,0.9348,0.2811,0.0439,0.1512,1.3473,0
2004/1/2 11:00,0,0,0,0.146,0.1714,0.0436,0.0956,1.3383,0
2004/1/2 11:15,0,0,0,0.1418,0.1467,0.0438,0.1009,1.3056,0
2004/1/2 11:30,0,0,0,0.1403,0.2965,0.0441,0.1351,1.22,0
2004/1/2 11:45,0,0,0,0.1462,0.0317,0.0439,0.096,0.4955,0
2004/1/2 12:00,0,0,0,0.1446,0.2867,0.0461,0.1482,0.4565,0
2004/1/2 12:15,0,0,0,0.138,0.146,0.0505,0.0922,0.4228,0
2004/1/2 12:30,0,0,0,0.1392,0.1653,0.0432,0.1439,0.4167,0
2004/1/2 12:45,0,0,0,0.1447,0.272,0.0429,0.0945,0.431,0
2004/1/2 13:00,0,0,0,0.143,0.0305,0.0431,0.0912,0.4071,0
2004/1/2 13:15,0,0,0,0.1439,0.3014,0.0428,0.1423,0.4251,0
2004/1/2 13:30,0,0,0,0.1392,0.1355,0.0428,0.0888,0.4136,0
2004/1/2 13:45,0,0,0,0.1411,0.1685,0.0425,0.1377,0.4828,0
2004/1/2 14:00,0,0,0,0.1439,0.2704,0.0429,0.09,0.5018,0
2004/1/2 14:15,0,0,0,0.1378,0.0301,0.0428,0.1388,0.6352,0
2004/1/2 14:30,0,0,0,2.3124,0.312,0.0429,0.0896,0.92,0
2004/1/2 14:45,0,0,0,0.5766,0.1344,0.0428,0.0888,0.7262,0
2004/1/2 15:00,0.0003,0,0,0.1456,0.1771,0.0429,0.1418,0.6859,0
2004/1/2 15:15,0.0006,0,0,0.6653,0.2824,0.258,0.0868,0.6882,0
2004/1/2 15:30,0.0003,0,0,0.1405,0.0302,0.4225,0.1153,0.9819,0
2004/1/2 15:45,0,0,0,0.1388,0.3743,0.3917,0.0753,1.05,0
2004/1/2 16:00,0,0,0,0.138,0.1142,0.4046,0.1215,1.0162,0
2004/1/2 16:15,0,0,0,0.1374,0.2529,0.4036,0.0942,1.103,0
2004/1/2 16:30,0,0,0,0.1305,0.2091,0.3732,0.0868,1.1333,0
2004/1/2 16:45,0,0,0,0.142,0.1532,0.048,0.1266,1.2334,0
2004/1/2 17:00,0,0,0,0.1364,0.3774,0.0426,0.0829,1.7469,0
2004/1/2 17:15,0,0,0,0.1428,0.1974,0.0422,0.1342,1.8812,0
2004/1/2 17:30,0,0,0,0.1351,0.0757,0.0422,0.0852,1.9585,0
2004/1/2 17:45,0,0,0,0.1447,0.361,0.3306,0.1243,1.7826,0
2004/1/2 18:00,0.0003,0,0,0.139,0.1947,0.4198,0.0815,1.7847,0
2004/1/2 18:15,0,0,0,0.9357,0.1721,0.4291,0.1237,1.8441,0
2004/1/2 18:30,0,0,0,1.0143,0.3043,0.4373,0.0671,1.9557,0
2004/1/2 18:45,0.0006,0,0,0.8175,0.0514,0.4272,0.1207,1.8768,0
2004/1/2 19:00,0.0003,0,0,2.003,0.3956,0.4189,0.0746,1.8782,0
2004/1/2 19:15,0.0001,0,0,1.7526,0.0609,0.4183,0.0707,1.8209,0
2004/1/2 19:30,0.0003,0,0,0.2524,0.3433,0.1411,0.1136,1.7724,0
2004/1/2 19:45,0.0006,0,0,0.2513,0.2241,0.0888,0.0716,1.7592,0
2004/1/2 20:00,0,0,0,0.2601,0.128,0.2618,0.1299,1.7713,0
2004/1/2 20:15,0,0,0,1.6256,0.3021,0.418,0.0827,1.8423,0
2004/1/2 20:30,0.0003,0,0,0.7108,0.1718,0.4156,0.1289,2.4934,0
2004/1/2 20:45,0,0,0,0.1837,0.1557,0.4497,0.0802,2.359,0
2004/1/2 21:00,0,0,0,0.236,0.3907,0.4513,0.0831,2.1194,0
2004/1/2 21:15,0,0,0,0.2454,0.0475,0.2292,0.1336,2.2272,0
2004/1/2 21:30,0,0,0,0.2487,0.3311,0.11,0.0832,2.3053,0
2004/1/2 21:45,0,0,0,0.2442,0.1817,0.1099,0.1332,1.5824,0
2004/1/2 22:00,0,0,0,0.2575,0.1927,0.1099,0.0858,1.0064,0
2004/1/2 22:15,5.3113,0,0,0.2461,0.2969,0.1099,0.0851,0.8009,0
2004/1/2 22:30,11.4474,0,0,0.7893,0.1146,0.1188,0.1344,1.1873,0
2004/1/2 22:45,11.3692,0,0,0.1657,0.1701,0.5066,0.0824,1.2087,0
2004/1/2 23:00,11.3666,0,0,0.4817,0.3038,0.4984,0.1162,1.0629,0
2004/1/2 23:15,11.2922,0,0,0.211,0.1086,0.4609,0.0727,1.0351,0
2004/1/2 23:30,11.4625,0,0,0.2192,0.1859,0.433,0.1179,1.0515,0
2004/1/2 23:45,11.5655,0,0,0.216,0.2979,0.3995,0.0896,1.457,0
2004/1/3 0:00,11.5762,0,0,0.2186,0.1081,0.4254,0.0842,1.6101,0
2004/1/3 0:15,11.3096,0,0,0.2144,0.1627,0.3855,0.1297,1.3535,0
2004/1/3 0:30,11.3816,0,0,0.2199,0.3051,0.4268,0.0841,1.2864,0
2004/1/3 0:45,11.3737,0,0,0.2172,0.1022,0.4252,0.1269,1.2784,0
2004/1/3 1:00,11.4009,0,0,0.2213,0.2127,0.3823,0.085,1.1425,0
2004/1/3 1:15,11.4784,0,0,0.2209,0.2969,0.0426,0.1161,0.3685,0
2004/1/3 1:30,11.5426,0,0,0.2233,0.1018,0.0429,0.0753,0.4124,0
2004/1/3 1:45,11.5439,0,0,0.2148,0.1668,0.0428,0.1244,0.4476,0
2004/1/3 2:00,11.4915,0,0,0.2245,0.3036,0.0426,0.0757,0.4743,0
2004/1/3 2:15,10.8897,0,0,0.2218,0.3272,0.0426,0.1211,0.5105,0
2004/1/3 2:30,1.5003,0,0,0.2203,0.268,0.0433,0.0734,0.4676,0
2004/1/3 2:45,6.2031,0,0,0.2195,0.5727,0.0432,0.075,0.4267,0
2004/1/3 3:00,11.7109,0,0,0.2265,0.4981,0.0432,0.121,0.4366,0
2004/1/3 3:15,7.9419,0,0,0.2206,0.5028,0.0428,0.0752,0.4575,0
2004/1/3 3:30,1.4999,0,0,0.2231,0.4506,0.0432,0.1182,0.4365,0
2004/1/3 3:45,5.0103,0,0,0.221,0.3086,0.0432,0.0753,0.3757,0
2004/1/3 4:00,11.6594,0,0,0.2238,0.0321,0.0431,0.1282,0.3512,0
2004/1/3 4:15,5.4013,0,0,0.2233,0.308,0.0435,0.0756,0.3987,0
2004/1/3 4:30,1.5107,0,0,0.3653,0.212,0.0435,0.0756,0.2206,0
2004/1/3 4:45,4.7873,0,0,0.3118,0.1115,0.0435,0.1214,0.274,0
2004/1/3 5:00,11.6724,0,0,0.2154,0.3025,0.0432,0.0753,0.3417,0
2004/1/3 5:15,4.1606,0,0,0.2553,0.1963,0.0433,0.1174,0.3341,0
2004/1/3 5:30,1.5093,0,0,0.2513,0.0321,0.0435,0.0755,0.3076,0
2004/1/3 5:45,2.8516,0,0,0.2585,0.3027,0.0435,0.1201,0.3745,0
2004/1/3 6:00,11.5816,0,0,0.2563,0.2016,0.0429,0.0763,0.4748,0
2004/1/3 6:15,4.4695,0,0,0.256,0.0896,0.0433,0.1198,0.5374,0
2004/1/3 6:30,0.1583,0,0,0.2537,0.3043,0.0435,0.0769,0.3626,0
2004/1/3 6:45,1.5032,0,0,0.2507,0.0953,0.0433,0.1264,0.3325,0
2004/1/3 7:00,9.4679,0,0,0.2575,0.2025,0.0448,0.077,0.3401,0
2004/1/3 7:15,7.6879,0,0,0.2569,0.2418,0.0589,0.0769,0.3491,0
2004/1/3 7:30,0,0,0,0.2651,0.0465,0.0433,0.1254,0.32,0
2004/1/3 7:45,1.2781,0,0,0.2566,0.3118,0.0431,0.0788,0.2745,0
2004/1/3 8:00,3.4802,0,0,0.2523,0.1274,0.0425,0.1453,0.2223,0
2004/1/3 8:15,0,0,0,0.2599,0.2159,0.0432,0.0899,0.2946,0
2004/1/3 8:30,0,0,0,0.2546,0.2595,0.0439,0.1364,0.3174,0
2004/1/3 8:45,0,0,0,0.2539,0.0881,0.0435,0.0899,0.3004,0
2004/1/3 9:00,0,0,0,0.258,0.3174,0.0438,0.0956,0.398,0
2004/1/3 9:15,0,0,0,0.2559,0.1447,0.0436,0.1241,0.8047,0
2004/1/3 9:30,0,0,0,0.2604,0.2075,0.0433,0.0923,1.0106,0
2004/1/3 9:45,0,0,0,0.2467,0.2719,0.0436,0.1411,1.0066,0
2004/1/3 10:00,0,0,0,0.2557,0.032,0.0435,0.7475,1.0416,0
2004/1/3 10:15,0,0,0,2.27,0.3145,0.0435,0.141,1.0424,0
2004/1/3 10:30,0,0,0,0.6039,0.1464,0.0436,0.1001,1.374,0
2004/1/3 10:45,0,0,0,0.9137,0.1673,0.0426,0.1469,2.2657,0
2004/1/3 11:00,0,0,0,1.4473,0.2964,0.0429,0.0924,0.957,0
2004/1/3 11:15,0,0,0,0.2075,0.0461,0.0429,0.1547,1.0361,0
2004/1/3 11:30,0,0,0,0.202,0.3963,0.0425,0.1316,1.0526,0
2004/1/3 11:45,0,0,0,0.2147,0.0684,0.0423,0.0933,1.0822,0
2004/1/3 12:00,0.0003,0,0,0.2017,0.3324,0.0442,0.1522,0.8696,0
2004/1/3 12:15,0.0003,0,0,0.2045,0.1133,0.4101,0.1355,0.2323,0
2004/1/3 12:30,0.0003,0,0,0.2075,0.2542,0.481,0.0881,0.8153,0
2004/1/3 12:45,0.0007,0,0,0.2076,0.2372,0.4532,0.1223,0.24,0
2004/1/3 13:00,0,0,0,0.2068,0.128,0.4424,0.087,0.4435,0
2004/1/3 13:15,0,0,0,0.2072,0.3453,0.2114,0.1286,0.9805,0
2004/1/3 13:30,0,0,0,0.2062,0.0307,0.0883,0.0858,0.8169,0
2004/1/3 13:45,0,0,0,0.2053,0.3803,0.0883,0.1339,0.8145,0
2004/1/3 14:00,0,0,0,0.2065,0.0901,0.0881,0.0834,0.8145,0
2004/1/3 14:15,0,0,0,0.2068,0.2425,0.0881,0.0835,0.7979,0
2004/1/3 14:30,0,0,0,0.9439,0.2922,0.0881,0.1328,0.8523,0
2004/1/3 14:45,0,0,0,4.602,0.073,0.1754,0.0802,0.9206,0
2004/1/3 15:00,0,0,0,0.651,0.3573,0.4166,0.131,0.9681,0
2004/1/3 15:15,0,0,0,0.2017,0.2176,0.1859,0.0805,0.9995,0
2004/1/3 15:30,0,0,0,0.6552,0.1606,0.4398,0.128,0.9812,0
2004/1/3 15:45,0,0,0,0.1986,0.3784,0.408,0.0799,1.1403,0
2004/1/3 16:00,0,0,0,0.2049,0.0305,0.4065,0.0785,1.4642,0
2004/1/3 16:15,0,0,0,0.2032,0.3427,0.3512,0.1257,1.5859,0
2004/1/3 16:30,0,0,0,0.3368,0.1656,0.3756,0.0788,1.3772,0
2004/1/3 16:45,0,0,0,0.3144,0.1925,0.3567,0.1204,1.4371,0
2004/1/3 17:00,0,0,0,0.1912,0.3771,0.357,0.0799,1.4854,0
2004/1/3 17:15,0,0,0,0.2271,0.1339,0.3617,0.0808,1.5519,0
2004/1/3 17:30,0,0,0,3.0816,0.1087,0.3534,0.3038,1.5883,0
2004/1/3 17:45,0,0,0,0.2291,0.3938,0.3421,0.0798,1.6527,0
2004/1/3 18:00,0,0,0,0.2379,0.1316,0.3846,0.1237,1.5726,0
2004/1/3 18:15,0,0,0,0.8925,0.1698,0.4409,0.0786,1.5399,0
2004/1/3 18:30,0,0,0,0.6051,0.3619,0.4568,0.1099,1.7663,0
2004/1/3 18:45,0,0,0,1.3513,0.0304,0.4692,0.0701,1.7616,0
2004/1/3 19:00,0,0,0,2.4149,0.3557,0.4415,0.1125,1.4424,0
2004/1/3 19:15,0,0,0,0.7554,0.1516,0.4486,0.0671,1.3981,0
2004/1/3 19:30,0,0,0,1.6131,0.2225,0.2654,0.0678,1.4553,0
2004/1/3 19:45,0,0,0,3.1609,0.3103,0.0425,0.113,1.6494,0
2004/1/3 20:00,0,0,0,0.5787,0.1413,0.0429,0.0851,1.4808,0
2004/1/3 20:15,0,0,0,0.1624,0.3917,0.0429,0.1231,1.4839,0
2004/1/3 20:30,0,0,0,0.1869,0.0425,0.1799,0.0798,2.1293,0
2004/1/3 20:45,0,0,0,0.2087,0.3619,0.3961,0.1256,2.3136,0
2004/1/3 21:00,0,0,0,0.2088,0.1604,0.3989,0.0795,2.2589,0
2004/1/3 21:15,0,0,0,0.2071,0.237,0.3982,0.0802,2.1374,0
2004/1/3 21:30,0,0,0,0.2074,0.393,0.3648,0.124,2.101,0
2004/1/3 21:45,0,0,0,0.2154,0.1312,0.4153,0.5809,2.1139,0
2004/1/3 22:00,0,0,0,0.2114,0.2503,0.42,3.1762,2.3564,0
2004/1/3 22:15,5.2246,0,0,0.2177,0.3028,0.3807,3.0997,2.1436,0
2004/1/3 22:30,11.3099,0,0,0.2102,0.0613,0.3828,3.0892,1.983,0
2004/1/3 22:45,11.2265,0,0,0.9242,0.398,0.3872,1.4456,0.1572,0
2004/1/3 23:00,11.1658,0,0,3.5546,0.1221,0.4077,0.0649,-3.2276,0
2004/1/3 23:15,11.3003,0,0,0.0975,0.249,0.4022,0.1113,1.1598,0
2004/1/3 23:30,11.3757,0,0,0.6931,0.2932,0.3997,0.0707,1.4049,0
2004/1/3 23:45,11.448,0,0,0.1856,0.0677,0.4159,0.1305,1.4545,0
2004/1/4 0:00,11.5713,0,0,0.2112,0.3135,0.4003,0.0824,1.4522,0
2004/1/4 0:15,11.448,0,0,0.2163,0.218,0.4139,0.0804,1.2552,0
2004/1/4 0:30,11.355,0,0,0.217,0.0973,0.4113,0.1292,1.0774,0
2004/1/4 0:45,11.4002,0,0,0.2117,0.3947,0.4163,0.0827,0.9312,0
2004/1/4 1:00,11.3998,0,0,0.2208,0.0811,0.4067,0.1272,1.0917,0
2004/1/4 1:15,11.4375,0,0,0.212,0.2981,0.4185,0.0798,1.0668,0
2004/1/4 1:30,11.534,0,0,0.2173,0.2251,0.2955,0.0808,0.6818,0
2004/1/4 1:45,11.4936,0,0,0.3815,0.1228,0.0429,0.1253,0.5551,0
2004/1/4 2:00,11.561,0,0,0.4177,0.3084,0.0429,0.0674,0.4071,0
2004/1/4 2:15,10.7479,0,0,0.2262,0.2928,0.0429,0.1246,0.3345,0
2004/1/4 2:30,1.4934,0,0,0.1928,0.2586,0.0431,0.0755,0.2874,0
2004/1/4 2:45,6.0522,0,0,0.2403,0.4562,0.0431,0.1215,0.2755,0
2004/1/4 3:00,11.5897,0,0,0.2513,0.5671,0.0432,0.0768,0.2821,0
2004/1/4 3:15,7.2922,0,0,0.2487,0.4608,0.0432,0.0783,0.3751,0
2004/1/4 3:30,1.5129,0,0,0.2504,0.4913,0.0436,0.1277,0.4435,0
2004/1/4 3:45,5.1312,0,0,0.2563,0.4267,0.0435,0.0766,0.468,0
2004/1/4 4:00,11.373,0,0,0.2475,0.4585,0.0423,0.1178,0.2733,0
2004/1/4 4:15,5.3014,0,0,0.2507,0.1053,0.0426,0.0785,0.3774,0
2004/1/4 4:30,1.5067,0,0,0.2513,0.1244,0.0433,0.12,0.3675,0
2004/1/4 4:45,2.4651,0,0,0.2578,0.3028,0.0432,0.0724,0.4916,0
2004/1/4 5:00,11.6431,0,0,0.2553,0.1299,0.0432,0.0716,0.481,0
2004/1/4 5:15,5.9396,0,0,0.2568,0.1892,0.0433,0.1208,0.3925,0
2004/1/4 5:30,1.5009,0,0,0.248,0.2974,0.0433,0.0747,0.4311,0
2004/1/4 5:45,0.5754,0,0,0.2576,0.0318,0.0431,0.1149,0.5036,0
2004/1/4 6:00,6.8168,0,0,0.2533,0.2953,0.0431,0.0749,0.2213,0
2004/1/4 6:15,9.9328,0,0,0.2559,0.1822,0.0432,0.123,0.3691,0
2004/1/4 6:30,1.5003,0,0,0.2583,0.1279,0.0433,0.0755,0.303,0
2004/1/4 6:45,0.553,0,0,0.257,0.3036,0.0436,0.1257,0.3239,0
2004/1/4 7:00,0.4336,0,0,0.2559,0.0788,0.0454,0.076,0.4211,0
2004/1/4 7:15,11.6916,0,0,0.2513,0.231,0.059,0.0757,0.272,0
2004/1/4 7:30,5.2577,0,0,0.2624,0.2916,0.0432,0.12,0.4857,0
2004/1/4 7:45,0.1655,0,0,0.1932,0.1063,0.0435,0.0763,0.3443,0
2004/1/4 8:00,0.1666,0,0,0.18,0.2107,0.0433,0.1437,0.343,0
2004/1/4 8:15,0,0,0,0.1812,0.2975,0.0435,0.0888,0.3288,0
2004/1/4 8:30,0,0,0,0.213,0.0923,0.0426,0.0891,0.4193,0
2004/1/4 8:45,0,0,0,0.2173,0.2301,0.0423,0.849,0.7996,0
2004/1/4 9:00,0,0,0,0.2215,0.2955,0.0429,0.7752,0.8608,0
2004/1/4 9:15,0,0,0,0.222,0.0968,0.0429,0.7678,0.9861,0
2004/1/4 9:30,0,0,0,0.2206,0.235,0.0429,0.3262,0.976,0
2004/1/4 9:45,0,0,0,0.2238,0.2919,0.0428,0.1274,1.0575,0
2004/1/4 10:00,0,0,0,0.7309,0.0858,0.0426,0.0896,1.5928,0
2004/1/4 10:15,0,0,0,4.4938,0.2362,0.042,0.1116,1.5972,0
2004/1/4 10:30,0,0,0,1.4348,0.3041,0.0426,0.1215,2.7344,0
2004/1/4 10:45,0,0,0,0.4051,0.0611,0.0423,0.0906,2.1354,0
2004/1/4 11:00,0,0,0,0.2161,0.3383,0.0425,0.1358,1.5398,0
2004/1/4 11:15,0,0,0,0.2146,0.251,0.0428,0.0834,1.4132,0
2004/1/4 11:30,0,0,0,0.2147,0.1616,0.0432,0.1369,1.3923,0
2004/1/4 11:45,0,0,0,0.2157,0.3802,0.0433,0.1378,1.5401,0
2004/1/4 12:00,0,0,0,0.2176,0.0305,0.0449,0.1338,1.5359,0
2004/1/4 12:15,0.0009,0,0,0.2127,0.3119,0.0503,0.2166,1.7083,0
2004/1/4 12:30,0.0006,0,0,0.2187,0.1858,0.0432,0.1387,1.4066,0
2004/1/4 12:45,0.0013,0,0,0.2111,0.1643,0.0435,0.0858,1.3478,0
2004/1/4 13:00,0,0,0,0.2136,0.3874,0.1378,0.0868,1.368,0
2004/1/4 13:15,0,0,0,0.219,0.0311,0.3155,0.1319,1.4816,0
2004/1/4 13:30,0.0003,0,0,0.2148,0.3521,0.3724,0.0847,1.2025,0
2004/1/4 13:45,0,0,0,0.3747,0.1627,0.3813,0.1293,1.0957,0
2004/1/4 14:00,0,0,0,0.4196,0.1757,0.3397,0.077,1.266,0
2004/1/4 14:15,0,0,0,1.6786,0.2987,0.3396,0.121,1.3026,0
2004/1/4 14:30,0.0006,0,0,1.689,0.1156,0.3836,0.0759,1.3514,0
2004/1/4 14:45,0.0003,0,0,1.3958,0.2265,0.3597,0.121,1.2427,0
2004/1/4 15:00,0.0003,0,0,0.2326,0.346,0.3444,0.075,1.0152,0
2004/1/4 15:15,0,0,0,0.2411,0.0311,0.376,0.1142,1.2351,0
2004/1/4 15:30,0,0,0,0.2449,0.3794,0.3652,0.0821,1.0665,0
2004/1/4 15:45,0,0,0,0.2435,0.1099,0.3902,0.0733,1.1936,0
2004/1/4 16:00,0,0,0,0.2438,0.2616,0.3626,0.1241,1.3288,0
2004/1/4 16:15,0,0,0,0.2429,0.2233,0.3345,0.0763,1.4697,0
2004/1/4 16:30,0,0,0,0.2425,0.1486,0.3509,0.1221,1.4711,0
2004/1/4 16:45,0,0,0,0.246,0.3806,0.3771,0.0776,1.3467,0
2004/1/4 17:00,0,0,0,0.2413,0.1884,0.3777,0.0773,1.5745,0
2004/1/4 17:15,0,0,0,0.2474,0.0425,0.1021,0.1248,1.8143,0
2004/1/4 17:30,0,0,0,0.2442,0.4013,0.0431,0.0802,2.0553,0
2004/1/4 17:45,0,0,0,0.2426,0.1859,0.269,0.1171,2.0439,0
2004/1/4 18:00,0.0003,0,0,0.2393,0.0903,0.3802,0.0789,1.8991,0
2004/1/4 18:15,0,0,0,1.3622,0.3912,0.3982,0.1248,1.9266,0
2004/1/4 18:30,0.0003,0,0,2.0324,0.0451,0.1649,0.078,1.9048,0
2004/1/4 18:45,0,0,0,0.2432,0.341,0.0426,0.126,2.9275,0
2004/1/4 19:00,0,0,0,0.256,0.1824,0.0441,0.0802,3.3061,0
2004/1/4 19:15,0,0,0,0.2477,0.1902,0.0585,0.0804,5.6665,0
2004/1/4 19:30,0,0,0,0.2451,0.3542,0.0428,0.123,6.0684,0
2004/1/4 19:45,0,0,0,0.2436,0.0356,0.0428,0.0779,5.1896,0
2004/1/4 20:00,0,0,0,0.1398,0.3194,0.0426,0.1197,3.5555,0
2004/1/4 20:15,0,0,0,0.3377,0.2608,0.0426,0.0789,1.9796,0
2004/1/4 20:30,0,0,0,0.1395,0.0302,0.0425,0.124,1.8215,0
2004/1/4 20:45,0,0,0,0.1434,0.3934,0.0426,0.0802,1.5065,0
2004/1/4 21:00,0.0003,0,0,0.1403,0.1502,0.1408,0.1259,1.6282,0
2004/1/4 21:15,0,0,0,0.1403,0.2431,0.4098,0.0815,1.9812,0
2004/1/4 21:30,0,0,0,0.1394,0.2746,0.4176,0.0808,2.0359,0
2004/1/4 21:45,0,0,0,0.1457,0.1427,0.4022,0.1286,1.8459,0
2004/1/4 22:00,0,0,0,0.1434,0.303,0.4055,0.0838,2.574,0
2004/1/4 22:15,5.1816,0,0,0.1378,0.0922,0.4285,0.1303,1.5045,0
2004/1/4 22:30,11.2866,0,0,0.1434,0.2667,0.4078,0.0808,1.5695,0
2004/1/4 22:45,11.2519,0,0,0.1428,0.1983,0.4084,0.0814,1.5396,0
2004/1/4 23:00,11.3659,0,0,0.1463,0.1578,0.4065,0.1128,1.6207,0
2004/1/4 23:15,11.3988,0,0,0.142,0.2991,0.4029,0.0677,1.9405,0
2004/1/4 23:30,11.2476,0,0,0.5723,0.0567,0.402,0.1197,1.5607,0
2004/1/4 23:45,11.3869,0,0,0.1411,0.3119,0.3934,0.0909,1.8878,0
2004/1/5 0:00,11.4903,0,0,2.0229,0.2157,0.2438,0.1284,1.1049,0
2004/1/5 0:15,11.3299,0,0,0.0282,0.1768,0.0425,0.0814,0.2962,0
2004/1/5 0:30,11.3253,0,0,0.0739,0.2994,0.0423,0.0841,0.301,0
2004/1/5 0:45,11.4124,0,0,0.1161,0.0541,0.0423,0.129,0.2943,0
2004/1/5 1:00,11.448,0,0,0.1434,0.309,0.0428,0.0811,0.3106,0
2004/1/5 1:15,11.4667,0,0,0.1463,0.1787,0.0426,0.1283,0.2965,0
2004/1/5 1:30,11.4918,0,0,0.1519,0.2222,0.0426,0.0808,0.291,0
2004/1/5 1:45,11.5845,0,0,0.15,0.2555,0.0432,0.1296,0.3129,0
2004/1/5 2:00,11.589,0,0,0.15,0.1004,0.0431,0.0639,0.2943,0